Overview Statistics Trail Chart Weather Telemetry Raw packets
 

This is the latest recevied weather packets stored in our database for station/object JL1LCW-13. If no packets are shown the sender has not sent any weather packets the latest 10 day(s).

<< 15 16 17 18 19 20 >>
Time Temp. Humidity Pressure Rain* Wind** Luminosity Snow
1787921341 26.11° C 99% 1014 hPa 0 mm - - -
1787918640 26.11° C 98% 1014 hPa 0 mm - - -
1787917739 26.11° C 98% 1014 hPa 0 mm - - -
1787915040 26.11° C 98% 1014 hPa 0 mm - - -
1787914140 26.11° C 97% 1013 hPa 0 mm - - -
1787911443 26.11° C 94% 1013 hPa 0 mm - - -
1787910540 27.22° C 93% 1012 hPa 0 mm - - -
1787907840 27.78° C 88% 1012 hPa 0 mm - - -
1787906940 27.78° C 88% 1011 hPa 0 mm - - -
1787904240 28.89° C 85% 1011 hPa 0 mm - - -
1787903339 30° C 82% 1011 hPa 0 mm - - -
1787900640 30° C 89% 1011 hPa 0 mm - - -
1787899740 30° C 90% 1011 hPa 0 mm - - -
1787897041 32.22° C 83% 1011 hPa 0 mm - - -
1787896140 32.22° C 82% 1011 hPa 0 mm - - -
1787893439 32.78° C 77% 1010 hPa 0 mm - - -
1787892541 33.89° C 80% 1010 hPa 0 mm - - -
1787889840 32.78° C 84% 1010 hPa 0 mm - - -
1787888939 32.78° C 78% 1011 hPa 0 mm - - -
1787886240 33.89° C 73% 1011 hPa 0 mm - - -
1787885340 32.78° C 75% 1011 hPa 0 mm - - -
1787882641 32.22° C 81% 1011 hPa 0 mm - - -
1787881741 31.11° C 84% 1011 hPa 0 mm - - -
1787879039 30° C 90% 1011 hPa 0 mm - - -
1787878141 30° C 89% 1011 hPa 0 mm - - -

* Rain latest hour (hover to see other rain measurements)
** Current wind speed in m/s (hover to see current wind gust speed)